Showing default

COSMOS 1998, 19789

Orbit data source: Space-Track

COSMOS 1998, 19789 is a payload satellite owned by UNKS (CIS) in LEO that was launched on Fri, 10 Feb 1989 UTC via a TSIKLON-3 launch vehicle from the Plesetsk Missile And Space Complex (PKMTR). Payload-class satellites include a variety of spacecraft equipped with specific instruments for various scientific and technological missions. These include communications satellites like Starlink; space stations such as the ISS; scientific satellites like the Hubble; Earth observation satellites from companies like Planet Labs, Umbra, and HawkEye 360; GPS; miniature CubeSats for education and research; and military/defense satellites.

Loading next visibility...
Identifier
19789, 1989-009E
Orbit
LEO
Country
Flag of CISCIS
Related business
Manufacturer
NPO PM
Mission
Defense Communications
Bus & Motor
STRELA-3, Unknown motor
Mass
225 kg wet, 225 kg dry
Launch date (UTC)
1989-02-10 (38 years ago)
Launch vehicle
TSIKLON-3
Launch site
Plesetsk Missile And Space Complex (PKMTR)
Object type
Payload
Rocket body
Debris
Shape & HBR
Cyl, 0.9 m
Radar Cross Section
1.257 m², Large (>1 m²)

Expand to show TLE details & history
Last TLE update: 7 hours ago

TLE from 7 hours ago
0 COSMOS 1998
1 19789U 89009E   26262.75059366  .00000020  00000-0  48450-4 0  9996
2 19789  82.6061 271.1238 0017159  67.4499 292.8408 12.64935531735978
Epoch: 2026-09-19T18:00Z
TLE epoch observation values (Epoch: 2026-09-19T18:00:51.292Z)
Latitude
0.00003°
Longitude
2.25544°
Altitude
1,400.209 km
Speed
7.162 km/s
True Right ascension
18h 04m 29s
True Declination
0° 00' 00"
Sunlit
Object was in daylight at epoch
Visualization orbit readout
Latitude
Unknown
Longitude
Unknown
Altitude
Unknown
Speed
Unknown
Apparent Right ascension
Unknown
Apparent Declination
Unknown
Sunlit
N/A
Visualization observer readout
Local Sidereal Time
18:23:48
Azimuth
Unknown
Elevation
Unknown
Doppler factor
Unknown
Orbital elements
Apogee altitude
1,413.301 km
Perigee altitude
1,386.609 km
Semi-major axis
7,778.092 km
Eccentricity
0.00172
Inclination
82.6061°
RAAN
271.1238°
Arg. of periapsis
67.4499°
True anomaly
292.65944°
Mean anomaly
292.8408°
Eccentric anomaly
292.75013°
Mean motion
3.16398 °/min
Orbital period
113.78 mins
BSTAR
0.00004845
Loading maneuver chart data...
Computing Atmospheric mass density...
Loading historical data...
Loading historical data...
Loading historical data...
Loading historical data...
Loading historical data...
Loading historical data...
Loading historical data...

Documentation

Showing up to 5 results
|